Weather reports worldwide

Advertisment
Mont-Rigi, Belgium (6494): temperature & dewpoint: 20.10.2020 10:00:00 - 26.10.2020 10:00:00 (CET)Mont-Rigi, Belgium (6494): wind speed & gusts: 20.10.2020 10:00:00 - 26.10.2020 10:00:00 (CET)Mont-Rigi, Belgium (6494): wind direction: 20.10.2020 10:00:00 - 26.10.2020 10:00:00 (CET)Mont-Rigi, Belgium (6494): reduced air pressure: 20.10.2020 10:00:00 - 26.10.2020 10:00:00 (CET)Mont-Rigi, Belgium (6494): sunshine duration: 20.10.2020 10:00:00 - 26.10.2020 10:00:00 (CET)Mont-Rigi, Belgium (6494): precipitation: 20.10.2020 10:00:00 - 26.10.2020 10:00:00 (CET)
Date & Time tt [°C] td [°C] ff [km/h] ff [kn] fx [km/h] fx [kn] dd ppp [hPa] sd [min] rr [mm]
26.10.2020 10:00:00 5,5 5,2 23 12 40 21 SSW 1003,8 0 0,0
26.10.2020 09:00:00 5,1 4,8 24 13 40 22 SW 1003,2 0 0,0
26.10.2020 08:00:00 5,1 4,9 26 14 44 24 SSW 1002,9 0 0,0
26.10.2020 07:00:00 5,5 5,4 18 10 30 16 SSW 1002,4 0 0,0
26.10.2020 06:00:00 5,9 5,7 16 8 32 17 SSW 1002,1 0 0,0
26.10.2020 05:00:00 5,9 5,8 14 8 28 15 SSW 1002,4 0 0,1
26.10.2020 04:00:00 - - - - - - - - - -
26.10.2020 03:00:00 6,0 5,8 13 7 26 14 SSW 1002,8 0 0,1
26.10.2020 02:00:00 - - - - - - - - - -
26.10.2020 01:00:00 7,0 6,9 18 10 35 19 SSW 1003,0 0 0,1
26.10.2020 00:00:00 6,9 6,8 18 10 32 18 SSW 1003,2 0 0,2
25.10.2020 23:00:00 - - - - - - - - - -
25.10.2020 22:00:00 7,0 6,9 22 12 40 21 SSW 1003,7 0 0,0
25.10.2020 21:00:00 - - - - - - - - - -
25.10.2020 20:00:00 7,2 7,1 20 11 35 19 SSW 1004,0 0 0,1
25.10.2020 19:00:00 7,4 7,3 22 12 38 20 SSW 1004,9 0 0,7
25.10.2020 18:00:00 7,6 7,5 18 10 39 21 SSW 1003,8 0 0,7
25.10.2020 17:00:00 7,8 7,7 19 10 39 21 SSW 1003,9 0 1,6
25.10.2020 16:00:00 8,2 8,1 16 9 35 19 SSW 1003,7 0 0,4
25.10.2020 15:00:00 - - - - - - - - - -
25.10.2020 14:00:00 8,3 8,2 19 10 38 20 SSW 1004,2 0 1,7
25.10.2020 13:00:00 - - - - - - - - - -
25.10.2020 12:00:00 - - - - - - - - - -
25.10.2020 11:00:00 8,7 8,2 24 13 38 21 S 1004,4 0 0,0
25.10.2020 10:00:00 8,5 7,9 22 12 42 23 S 1004,7 0 0,0
25.10.2020 09:00:00 8,4 7,8 23 12 43 23 S 1005,9 0 0,0
25.10.2020 08:00:00 8,4 7,9 23 12 47 26 S 1005,5 0 0,0
25.10.2020 07:00:00 8,5 8,2 25 14 45 25 S 1005,7 0 0,0
25.10.2020 06:00:00 - - - - - - - - - -
25.10.2020 05:00:00 - - - - - - - - - -
25.10.2020 04:00:00 9,0 8,7 26 14 46 25 S 1007,2 0 1,1
25.10.2020 03:00:00 9,3 9,0 24 13 43 23 SSW 1007,5 0 0,0
25.10.2020 02:00:00 9,5 9,3 25 14 49 26 S 1008,0 0 0,0
25.10.2020 01:00:00 - - - - - - - - - -
25.10.2020 00:00:00 9,7 9,5 31 17 57 31 S 1009,5 0 0,0
24.10.2020 23:00:00 9,7 9,7 34 19 64 34 S 1009,3 0 0,2
24.10.2020 22:00:00 9,8 9,8 28 15 45 24 S 1010,0 0 0,2
24.10.2020 21:00:00 9,9 9,9 25 13 45 25 SSW 1010,5 0 0,1
24.10.2020 20:00:00 9,8 9,8 22 12 45 24 S 1011,5 0 0,1
24.10.2020 19:00:00 - - - - - - - - - -
24.10.2020 18:00:00 - - - - - - - - - -
24.10.2020 17:00:00 9,5 9,5 22 12 42 23 SSW 1012,5 0 0,0
24.10.2020 16:00:00 9,7 9,7 25 14 45 25 SSW 1013,0 0 0,1
24.10.2020 15:00:00 9,4 9,4 26 14 45 24 SSW 1013,5 0 0,0
24.10.2020 14:00:00 - - - - - - - - - -
24.10.2020 13:00:00 9,0 8,9 22 12 42 23 SSW 1014,5 0 0,0
24.10.2020 12:00:00 8,5 8,5 24 13 42 23 SSW 1015,2 0 0,1
24.10.2020 11:00:00 8,2 8,1 26 14 46 25 SSW 1015,2 0 0,1
24.10.2020 10:00:00 - - - - - - - - - -
24.10.2020 09:00:00 7,8 7,6 21 11 38 20 S 1015,5 0 0,0
24.10.2020 08:00:00 - - - - - - - - - -
24.10.2020 07:00:00 8,5 8,3 14 8 30 16 SSW 1014,6 0 0,0
24.10.2020 06:00:00 8,4 8,3 18 10 32 17 SW 1014,9 0 0,0
24.10.2020 05:00:00 8,3 8,2 19 10 34 19 SW 1015,0 0 0,0
24.10.2020 04:00:00 - - - - - - - - - -
24.10.2020 03:00:00 - - - - - - - - - -
24.10.2020 02:00:00 9,5 9,5 19 10 37 20 SW 1014,7 0 0,0
24.10.2020 01:00:00 9,5 9,5 18 10 35 19 SW 1014,7 0 0,5
24.10.2020 00:00:00 9,5 9,5 18 10 29 16 SW 1014,9 0 1,9
23.10.2020 23:00:00 - - - - - - - - - -
23.10.2020 22:00:00 - - - - - - - - - -
23.10.2020 21:00:00 9,8 9,7 19 10 27 14 SW 1013,8 0 0,0
23.10.2020 20:00:00 - - - - - - - - - -
23.10.2020 19:00:00 10,6 10,5 14 8 24 13 SW 1013,0 0 0,0
23.10.2020 18:00:00 10,8 10,7 14 8 22 12 SW 1012,6 0 0,0
23.10.2020 17:00:00 10,9 10,7 13 7 23 12 SW 1012,1 0 0,0
23.10.2020 16:00:00 11,2 11,1 15 8 23 13 SW 1011,8 0 0,2
23.10.2020 15:00:00 11,0 10,8 13 7 30 16 SW 1011,6 0 2,3
23.10.2020 14:00:00 11,9 11,6 16 9 26 14 SW 1011,4 0 0,1
23.10.2020 13:00:00 11,6 11,4 14 8 29 16 SSW 1011,7 0 0,0
23.10.2020 12:00:00 11,6 11,5 18 10 31 17 SSW 1012,1 0 0,0
23.10.2020 11:00:00 11,2 11,2 13 7 24 13 SSW 1012,3 0 0,0
23.10.2020 10:00:00 - - - - - - - - - -
23.10.2020 09:00:00 - - - - - - - - - -
23.10.2020 08:00:00 - - - - - - - - - -
23.10.2020 07:00:00 11,1 11,1 14 8 21 11 SW 1011,9 0 0,4
23.10.2020 06:00:00 11,2 11,2 12 6 22 12 SSW 1012,2 0 0,8
23.10.2020 05:00:00 11,4 11,4 14 7 22 12 SSW 1012,5 0 0,4
23.10.2020 04:00:00 11,4 11,4 11 6 18 10 SSW 1012,9 0 0,0
23.10.2020 03:00:00 11,5 11,5 14 7 22 12 SSW 1013,4 0 0,0
23.10.2020 02:00:00 11,5 11,5 14 7 29 15 SSW 1013,8 0 0,0
23.10.2020 01:00:00 11,7 11,7 14 8 28 15 SW 1013,7 0 0,0
23.10.2020 00:00:00 11,7 11,7 15 8 26 14 SSW 1013,9 0 0,0
22.10.2020 23:00:00 11,5 11,5 16 9 25 13 SSW 1014,0 0 0,0
22.10.2020 22:00:00 11,6 11,5 16 9 29 15 SSW 1014,2 0 0,0
22.10.2020 21:00:00 11,9 11,7 17 9 29 16 S 1013,9 0 0,0
22.10.2020 20:00:00 11,8 11,5 14 8 29 16 SSW 1013,9 0 0,0
22.10.2020 19:00:00 12,1 11,7 14 8 31 17 S 1013,9 0 0,5
22.10.2020 18:00:00 12,9 11,6 18 10 31 17 SSW 1013,4 0 0,5
22.10.2020 17:00:00 - - - - - - - - - -
22.10.2020 16:00:00 - - - - - - - - - -
22.10.2020 15:00:00 14,8 10,9 18 10 37 20 SSW 1012,3 3 0,0
22.10.2020 14:00:00 14,3 10,7 20 11 35 19 SSW 1012,8 0 0,0
22.10.2020 13:00:00 14,0 10,6 22 12 45 24 SSW 1013,1 0 0,0
22.10.2020 12:00:00 13,5 11,3 20 11 40 21 SSW 1013,4 0 0,0
22.10.2020 11:00:00 12,4 11,7 22 12 41 22 SSW 1013,6 0 0,0
22.10.2020 10:00:00 11,9 11,2 22 12 42 23 SSW 1014,1 0 0,0
22.10.2020 09:00:00 11,1 11,0 20 11 38 20 SSW 1013,9 0 0,0
22.10.2020 08:00:00 11,2 11,2 17 9 33 18 SSW 1013,0 0 0,1
22.10.2020 07:00:00 11,4 11,2 18 10 29 16 SSW 1012,3 0 0,1
22.10.2020 06:00:00 - - - - - - - - - -
22.10.2020 05:00:00 11,5 11,3 16 9 29 15 SSW 1011,9 0 0,0
22.10.2020 04:00:00 11,5 11,2 17 9 29 15 SSW 1012,0 0 0,0
22.10.2020 03:00:00 - - - - - - - - - -
22.10.2020 02:00:00 - - - - - - - - - -
22.10.2020 01:00:00 11,8 10,5 18 10 32 17 SSW 1010,7 0 0,0
22.10.2020 00:00:00 12,2 9,6 21 11 37 20 SW 1010,0 0 0,0
21.10.2020 23:00:00 12,7 9,5 21 12 45 24 SSW 1009,4 0 0,0
21.10.2020 22:00:00 - - - - - - - - - -
21.10.2020 21:00:00 14,1 10,7 25 13 44 24 SW 1007,7 0 0,0
21.10.2020 20:00:00 14,2 10,3 24 13 45 25 SSW 1007,0 0 0,0
21.10.2020 19:00:00 14,2 9,9 25 14 53 29 SSW 1006,1 0 0,0
21.10.2020 18:00:00 14,6 9,8 30 16 56 30 SSW 1005,1 0 0,0
21.10.2020 17:00:00 15,0 9,6 32 17 69 38 SSW 1003,9 0 0,0
21.10.2020 16:00:00 16,0 9,3 36 20 67 36 SSW 1003,0 0 0,0
21.10.2020 15:00:00 - - - - - - - - - -
21.10.2020 14:00:00 15,7 8,7 29 16 59 32 SSW 1003,1 0 0,0
21.10.2020 13:00:00 14,3 8,3 32 18 62 33 S 1003,6 0 0,0
21.10.2020 12:00:00 12,8 7,4 34 19 55 30 S 1004,3 0 0,0
21.10.2020 11:00:00 11,4 7,2 28 15 59 32 S 1005,0 0 0,0
21.10.2020 10:00:00 - - - - - - - - - -
21.10.2020 09:00:00 - - - - - - - - - -
21.10.2020 08:00:00 8,0 7,9 20 11 36 19 S 1006,5 0 1,7
21.10.2020 07:00:00 8,1 7,9 18 10 40 22 S 1006,8 0 1,7
21.10.2020 06:00:00 8,1 7,8 23 12 38 20 S 1006,7 0 0,4
21.10.2020 05:00:00 8,1 7,7 23 13 46 25 S 1006,3 0 0,2
21.10.2020 04:00:00 8,2 7,9 23 12 40 22 S 1007,1 0 0,6
21.10.2020 03:00:00 - - - - - - - - - -
21.10.2020 02:00:00 - - - - - - - - - -
21.10.2020 01:00:00 9,3 9,3 18 10 32 17 S 1008,8 0 0,5
21.10.2020 00:00:00 9,5 9,5 19 10 32 17 S 1009,1 0 0,3
20.10.2020 23:00:00 9,6 9,6 17 9 29 16 S 1009,8 0 0,4
20.10.2020 22:00:00 9,5 9,4 17 9 32 18 S 1010,0 0 0,3
20.10.2020 21:00:00 9,5 9,2 13 7 34 18 S 1010,3 0 0,3
20.10.2020 20:00:00 - - - - - - - - - -
20.10.2020 19:00:00 - - - - - - - - - -
20.10.2020 18:00:00 10,2 10,2 20 11 35 19 SSW 1010,7 0 0,0
20.10.2020 17:00:00 - - - - - - - - - -
20.10.2020 16:00:00 10,3 10,1 20 11 39 21 S 1010,9 0 0,2
20.10.2020 15:00:00 - - - - - - - - - -
20.10.2020 14:00:00 10,0 9,0 22 12 34 18 S 1011,1 0 0,0
20.10.2020 13:00:00 9,7 7,6 22 12 35 19 S 1011,1 0 0,0
20.10.2020 12:00:00 9,5 7,2 17 9 40 22 S 1011,1 0 0,0
20.10.2020 11:00:00 9,7 6,6 21 11 43 23 SSW 1011,0 0 0,0
20.10.2020 10:00:00 7,3 6,4 24 13 39 21 S 1011,3 0 0,0

tt = temperature
td = dewpoint
ff = wind speed
fx = gusts
dd = wind direction
ppp = reduced air pressure
sd = sunshine duration
rr = precipitation

Next stations